一网星座-0637星 (ONEWEB-0637)

导读 | 星芒AI

ONEWEB-0637 是 OneWeb 卫星通信星座计划中的一颗低轨道通信卫星,旨在为全球提供高速互联网服务。该卫星由阿丽亚娜集团制造,于2022年发射,运行在约1200公里高度的近极地轨道上。OneWeb 星座由数百颗卫星组成,专注于为偏远地区和航空、航海用户提供稳定连接。ONEWEB-0637 在提升全球网络覆盖和通信能力方面发挥着重要作用。

基本信息
目录编号:
56078
目录名称:
ONEWEB-0637
国际标识:
2023-043AJ
轨道中心:
EARTH
卫星名称:
一网星座-0637星
卫星全名:
一网星座-0637星 (ONEWEB-0637)
卫星状态:
在轨 (已飞行949 天)
发射日期:
2023-03-26 UTC
国别 :
英国 (GB)
星等 :
--
轨道信息
数据来源 国际轨道数据
星历时间: 2025-10-30T02:03:14+0800
11小时前
查看轨道信息
半长轴: 7579.919km
偏心率: 0.0001713
轨道倾角: 87.896°
近地点辐角 81.860°
升交点赤经 305.208°
平近点角 278.272°
近地点: 1200.485km
远地点: 1203.083km
周期: 109.460分钟
每日圈数: 13.155457
详细信息
平衡模式:
三轴稳定
覆盖范围:
全球
运营商:
一网卫星公司
运营商所在国:
英国
制造商(研发单位):
一网卫星公司
制造商所在国:
英国
使用方式:
暂无
卫星简介
OneWeb卫星网络由648颗重约125公斤的微型卫星组成,运行在1200公里的轨道上。 每颗卫星都能够提供至少每秒8千兆位的吞吐量,以使用其高吞吐量的Ku频段有效载荷为家庭和移动平台提供互联网接入。该卫星仍在工作。
2D轨道图
3D轨道图
轨道高度分析图
轨道倾角分析图
轨道综合分析图
查看轨道综合分析图